Presure
131 98 103 96 100 103 96 107 138 98 103 93 91 99 125 155 152 148 148 154 129 150 178 162 150 171 169 138 149 172 167 166 148 159 170 149 113 164 169 162 159 152 150 142 135 150 137 164 88
96 153 91 102 104 96 106 107 90 103 107 101 90 121 104 103 101 103 91 136 154 147 96 128 156 148 169 145 174 134 131 161 118 105 119 149 164 169 172 169 160 160 151 100 113 150 157 118 96
102 122 101 113 104 109 123 100 101 89 103 117 92 101 107 108 96 102 169 160 110 136 102 102 161 152 103 98 120 156 103 138 130 118 98 146 106 90 145 111 139 98 98 96 145 147 149 136 93
136 101 129 148 107 101 137 107 152 121 100 102 92 102 161 110 94 90 90 96 97 95 93 94 93 91 165 100 104 94 92 109 159 136 154 172 168 143 96 150 88 164 90 162 128 94 105 107 154
107 142 134 167 99 101 104 155 107 91 108 99 95 89 116 101 84 125 147 149 107 87 95 95 144 118 97 103 102 100 102 126 162 107 100 96 100 170 101 151 100 148 90 145 164 156 102 147 104
121 103 100 106 97 157 103 93 146 111 76 91 97 171 153 85 90 169 159 143 150 169 152 84 84 83 86 97 99 98 92 123 99 101 124 92 88 89 90 94 96 100 126 130 127 127 160 145 172
107 99 106 98 97 96 162 115 90 102 105 92 95 104 101 104 114 99 142 150 160 172 157 83 120 155 93 74 88 73 160 159 141 86 86 84 88 94 93 76 92 94 97 103 158 155 166 165 157
163 182 91 109 108 93 112 98 99 101 101 95 91 97 99 126 111 126 79 154 168 102 96 156 155 85 83 91 173 173 164 174 153 75 75 67 116 92 165 168 153 77 167 166 159 154 111 160 154
143 104 171 101 91 110 101 97 97 94 96 95 115 111 98 126 81 101 149 94 98 92 78 97 166 87 163 74 86 84 80 93 77 86 117 93 107 147 151 158 166 167 167 177 163 159 151 153 158
97 128 99 89 100 115 87 88 90 89 89 119 89 84 96 80 88 89 87 90 84 93 113 74 77 91 97 102 91 71 96 89 78 96 100 107 79 78 139 141 158 163 171 164 174 176 159 153 153
85 108 88 92 94 84 81 74 80 82 87 82 91 89 83 75 92 81 88 88 82 90 91 93 95 88 85 83 89 93 98 83 92 79 79 77 90 84 85 97 102 162 163 168 168 170 176 158 159
111 84 79 79 78 84 87 85 80 86 92 88 86 84 93 94 93 83 87 86 88 87 75 88 88 91 75 181 91 89 91 92 91 91 90 97 95 95 94 89 89 115 106 118 136 145 167 175 177
98 84 82 87 81 84 78 81 80 84 121 86 77 93 98 98 93 95 89 88 91 128 94 85 81 127 161 99 152 103 91 97 100 100 105 104 98 103 99 101 94 111 96 115 127 133 149 162 146
80 82 84 83 79 79 82 83 85 88 78 85 94 99 95 100 100 89 81 91 84 101 104 103 108 144 81 82 186 112 108 144 126 120 158 102 102 103 95 134 97 127 108 113 115 129 135 148 163
85 84 91 83 87 84 80 81 90 106 83 86 89 95 100 102 98 134 102 103 102 103 168 169 172 212 220 244 252 254 246 241 168 174 105 128 167 140 165 162 164 156 155 156 106 167 120 141 141
91 90 87 120 80 85 84 72 76 80 82 85 95 95 92 96 153 157 118 169 207 208 208 209 215 230 246 271 376 381 382 365 343 339 344 282 263 205 78 165 162 156 154 151 156 166 163 164 164
83 86 74 85 77 85 94 90 89 78 95 97 99 99 97 96 112 198 197 201 202 209 208 226 252 331 345 362 340 435 486 489 384 365 357 340 323 292 261 248 221 183 194 180 154 157 159 174 164
106 77 76 91 95 94 93 94 95 96 101 100 108 145 187 196 194 201 207 205 208 213 264 316 334 269 231 123 139 278 482 520 481 464 286 217 341 317 278 301 273 253 249 220 188 149 137 158 156
181 193 89 92 94 94 96 176 101 169 196 104 110 194 196 202 202 204 210 197 244 274 264 250 241 294 275 238 290 434 456 478 499 489 101 332 268 331 156 280 257 290 279 222 143 155 150 152 153
197 211 203 188 205 206 197 196 189 190 194 196 203 199 197 203 206 193 210 251 266 250 251 253 247 237 261 348 338 409 434 444 461 462 446 343 310 253 321 305 268 244 285 294 281 277 279 264 190
178 200 196 201 199 193 197 194 191 193 196 200 197 202 199 192 217 225 261 256 242 266 269 279 265 262 301 338 336 323 406 420 431 438 431 341 300 295 311 313 296 256 243 250 288 277 273 274 264
179 194 195 197 201 198 196 198 200 202 195 198 199 214 200 206 263 271 264 260 253 244 248 238 261 265 269 288 328 324 334 324 411 423 394 337 296 301 300 294 293 284 240 237 258 259 254 253 253
175 171 170 178 186 186 187 190 182 195 193 194 198 206 214 275 264 264 245 224 242 207 216 249 210 247 260 260 267 312 292 328 321 99 374 322 272 281 286 296 286 284 259 231 225 242 246 241 243
179 184 181 179 178 174 180 194 194 202 207 211 211 280 265 259 258 244 207 232 223 182 199 215 202 220 252 209 244 257 269 281 292 319 309 287 287 282 289 287 302 285 267 237 233 230 232 236 297
180 178 182 189 193 197 196 206 213 214 218 244 257 255 255 246 234 207 200 235 217 188 208 198 205 224 229 221 203 211 218 259 258 286 295 282 276 274 272 274 269 262 259 240 232 292 332 320 288
198 205 211 212 220 218 223 289 275 270 251 206 272 246 247 225 203 205 193 209 213 198 164 207 165 200 218 204 222 220 230 240 196 211 207 244 248 260 265 267 264 271 264 263 260 259 263 260 236
321 313 333 335 320 305 281 269 258 204 275 261 231 233 224 209 177 191 198 189 167 190 183 186 182 186 198 166 174 191 221 214 186 208 229 221 236 230 228 235 250 223 246 217 215 214 230 204 226
249 200 193 197 202 217 226 228 251 270 232 227 226 208 203 218 207 207 171 168 159 203 177 199 158 188 200 202 197 189 194 199 212 187 183 199 196 198 221 228 213 193 219 222 225 221 224 211 209
260 241 355 369 362 323 288 262 247 226 218 228 237 193 182 196 185 185 169 201 173 182 180 172 194 192 191 174 191 168 184 215 227 182 197 210 181 212 190 196 189 202 212 206 211 235 220 232 200
260 254 245 247 238 225 187 195 235 203 203 217 172 202 157 163 182 192 151 193 181 182 184 186 191 194 191 182 179 164 202 177 180 182 167 165 207 214 224 201 219 223 219 194 203 203 217 225 223
Wind_Speed
37 14 16 10 11 10 11 5 28 7 5 14 11 6 16 38 33 32 35 38 21 32 38 38 33 36 32 23 30 31 29 29 26 29 27 25 12 26 22 24 24 27 26 21 19 24 22 18 20
15 44 10 11 11 12 10 10 14 6 1 5 9 16 5 1 3 6 2 28 40 32 3 18 34 29 33 25 35 19 18 29 14 13 16 25 28 22 25 24 25 25 28 18 20 26 23 22 23
18 27 14 18 15 16 19 9 7 7 4 8 6 4 9 4 2 4 45 46 11 29 5 4 41 34 7 7 15 29 8 23 20 16 13 23 16 18 24 17 22 16 18 19 26 28 26 23 23
38 16 41 43 16 13 28 9 40 20 4 3 6 4 44 7 3 4 5 9 7 8 8 9 9 9 41 10 12 11 12 14 32 24 28 28 29 26 17 25 19 26 20 28 27 23 20 22 25
20 41 44 56 14 16 10 44 6 7 6 2 3 5 16 3 6 22 40 42 19 9 11 11 37 22 13 16 15 15 15 24 34 17 18 17 17 31 17 26 20 27 24 28 29 30 24 28 25
32 19 14 16 14 48 10 8 45 8 4 7 3 51 43 9 9 52 47 37 42 52 44 12 12 11 12 18 19 18 17 27 16 18 24 18 19 20 22 23 23 24 30 29 30 29 31 29 30
24 18 18 17 15 13 53 15 6 6 5 6 5 9 9 12 26 12 40 41 49 54 49 14 33 48 19 9 17 13 42 40 35 15 17 20 21 21 23 16 26 26 28 30 34 35 33 30 33
52 61 17 23 16 15 18 13 11 8 6 10 11 8 12 35 23 35 10 54 57 16 22 51 50 19 18 22 52 51 50 50 40 16 17 19 27 25 38 38 38 17 38 37 36 37 35 35 34
49 20 58 16 14 20 14 13 10 9 9 10 25 19 12 34 12 20 49 19 20 22 16 22 59 25 54 16 26 23 19 26 19 24 38 27 30 42 38 40 42 42 41 42 39 38 38 39 36
20 36 21 15 17 24 11 8 8 11 13 30 18 17 18 16 22 22 21 22 17 24 36 17 21 28 36 35 29 17 36 32 25 35 38 37 27 27 37 37 43 46 47 45 45 45 41 39 40
17 25 14 14 14 13 11 10 12 18 18 20 21 23 21 11 25 23 29 29 23 29 31 34 38 37 34 33 38 42 44 36 38 34 33 31 41 40 41 44 45 48 50 50 48 48 48 44 44
34 18 13 14 14 16 15 15 18 22 26 25 24 27 31 32 33 31 33 34 38 39 24 37 36 42 26 69 43 43 45 44 43 43 41 44 44 46 46 43 46 44 47 44 35 36 51 51 52
28 21 19 21 18 20 19 22 25 27 41 25 18 37 37 38 38 38 39 40 44 57 49 45 39 52 68 58 62 61 47 50 53 52 55 52 47 48 49 51 48 47 45 48 43 40 45 53 48
20 22 25 22 19 21 25 29 33 36 22 30 42 45 43 44 45 41 39 47 44 54 59 58 60 67 47 50 78 56 60 67 58 56 72 58 53 52 51 55 54 52 47 49 49 48 46 55 57
28 26 36 25 31 28 27 29 41 48 33 41 45 49 51 52 51 64 57 59 61 61 77 79 81 94 103 113 107 103 100 96 77 79 62 65 73 63 69 66 65 59 58 58 47 61 50 49 47
40 40 37 46 26 34 35 27 24 32 35 40 54 53 50 56 69 70 66 73 80 84 88 94 100 108 108 102 82 87 90 92 93 93 92 95 92 85 25 73 69 64 62 59 60 64 62 61 60
35 40 26 37 27 40 51 45 55 31 56 59 60 60 61 61 68 81 79 81 85 94 94 103 99 68 70 74 63 65 59 59 80 88 86 84 86 91 91 87 82 78 74 75 63 62 62 68 62
56 32 33 51 54 57 57 56 62 62 65 61 66 71 75 80 80 84 89 89 93 95 81 49 53 76 74 46 40 70 47 39 47 51 74 68 75 80 82 82 88 87 84 80 76 64 62 63 61
68 67 54 61 62 63 66 75 69 76 69 69 68 75 80 87 86 86 91 82 86 63 63 71 75 60 71 69 66 56 40 31 27 31 26 71 64 65 68 76 75 78 82 77 65 67 64 64 66
65 64 66 65 65 66 68 68 69 73 76 77 82 81 81 85 86 77 82 74 56 63 60 63 64 69 65 54 50 56 43 29 16 17 34 59 55 58 56 65 69 69 64 63 69 73 71 73 80
60 61 62 65 64 64 71 70 73 78 78 81 78 81 78 74 82 75 53 48 58 36 35 30 36 41 59 61 54 48 45 32 18 7 24 42 43 40 40 47 57 61 61 57 43 47 51 50 57
51 61 66 68 72 69 71 72 77 79 77 77 76 80 75 76 49 39 38 38 43 43 34 44 36 41 45 59 60 54 53 35 20 5 15 24 24 25 27 36 41 47 56 52 44 44 49 54 57
53 53 54 58 63 63 66 63 67 75 71 70 72 74 74 33 35 30 38 38 34 37 34 37 31 43 47 46 50 59 51 47 34 30 5 7 17 21 26 22 34 38 47 48 53 46 47 52 54
59 62 62 62 62 62 67 70 74 75 75 75 74 37 36 31 28 31 31 33 35 40 28 32 26 38 42 32 47 46 48 42 39 32 15 8 10 15 16 23 18 24 30 42 44 45 48 51 38
58 59 63 67 71 72 71 71 76 73 70 53 41 34 27 28 30 27 30 33 29 25 29 29 27 39 34 40 30 38 41 44 40 38 29 22 17 12 9 5 5 17 26 34 38 34 24 16 19
67 70 72 71 71 70 68 43 41 37 40 44 24 25 25 26 29 26 26 25 29 29 36 40 39 26 50 31 45 51 42 37 23 35 25 28 24 21 17 13 10 7 5 7 9 10 12 16 30
51 48 43 37 33 31 30 34 36 40 23 21 25 25 26 25 30 34 26 27 38 21 25 23 29 21 31 34 28 24 47 46 14 33 32 35 27 24 23 20 11 21 12 25 28 29 30 35 30
36 33 35 35 37 37 39 37 29 21 25 24 24 26 27 26 24 25 34 34 37 39 33 33 39 27 42 45 42 40 28 39 37 18 14 22 27 29 29 23 24 20 26 23 25 26 29 30 34
28 30 20 22 16 12 15 17 17 23 26 23 26 23 24 24 27 29 33 33 36 26 27 34 42 40 38 37 38 33 29 31 34 23 45 41 23 44 22 30 21 30 37 34 36 32 39 35 34
6 8 11 10 14 14 20 13 16 20 22 25 26 25 35 35 25 30 38 37 33 34 35 38 45 49 47 37 35 36 48 30 36 28 30 32 47 35 33 44 36 31 38 33 43 41 44 46 48
Wind_Direction
222 203 202 194 189 198 176 212 249 134 82 145 142 80 296 279 281 280 281 282 299 284 297 290 289 296 297 290 291 297 288 287 287 296 299 290 265 290 278 275 275 281 286 283 284 283 286 284 320
209 244 188 205 193 179 230 228 147 138 320 140 139 306 359 293 308 334 210 289 285 288 205 284 294 294 297 289 296 285 282 286 273 286 291 290 290 290 283 273 272 272 283 284 285 280 284 285 291
216 233 213 228 193 230 238 186 182 152 130 260 135 32 325 268 158 317 286 282 282 286 282 285 292 292 288 251 277 290 258 282 284 265 244 282 259 281 276 269 271 276 278 288 279 282 282 276 299
229 217 235 247 200 199 249 214 255 265 131 108 139 7 276 318 204 231 239 268 253 260 250 258 252 241 293 264 278 254 261 281 284 275 281 291 285 279 268 269 306 267 297 268 287 291 276 278 270
228 235 239 250 186 230 195 254 208 145 257 162 121 156 276 284 205 286 283 285 271 254 273 274 291 288 274 282 278 265 276 286 286 280 266 266 266 283 273 275 277 276 299 270 267 274 279 274 278
228 215 186 198 174 256 198 184 254 249 227 161 262 278 268 220 221 279 282 283 286 282 290 266 268 274 283 281 281 285 279 284 274 271 273 284 304 304 299 293 294 288 280 274 276 276 269 276 271
223 200 206 183 176 185 259 231 198 162 149 189 208 296 284 285 306 244 289 289 281 284 285 268 284 289 287 320 305 319 284 284 280 287 289 297 292 284 286 303 301 297 295 292 265 272 268 269 272
239 245 183 234 211 188 237 185 175 160 192 183 213 243 272 298 291 302 290 287 285 252 268 283 287 277 285 284 284 283 284 281 280 302 300 315 284 295 279 280 276 297 270 266 263 267 286 266 269
238 211 247 208 210 230 199 189 181 193 197 205 291 252 241 295 279 271 283 267 267 262 297 274 283 285 283 305 288 290 288 279 289 283 281 293 294 280 277 275 277 276 271 272 264 261 266 269 266
205 233 200 204 227 239 216 219 211 237 243 266 242 254 247 282 272 275 271 262 275 275 285 305 287 279 277 275 281 300 278 283 295 281 279 278 301 298 274 274 275 275 275 269 270 267 260 260 263
219 223 217 221 228 227 243 265 258 267 259 271 261 265 269 299 258 291 278 280 281 276 271 274 279 273 277 284 275 274 276 287 279 302 306 302 293 306 304 295 294 273 273 273 270 270 268 262 260
238 228 237 253 262 259 253 253 261 265 267 267 272 272 272 273 268 280 281 283 280 282 296 279 276 275 282 281 276 279 280 280 282 284 289 280 289 290 294 296 296 279 291 275 271 271 269 269 268
238 245 248 251 254 263 270 266 266 266 268 272 276 279 281 274 273 275 275 274 272 280 274 282 294 289 287 276 288 274 275 283 282 287 284 286 286 288 288 288 289 280 292 278 267 266 269 270 268
250 251 258 256 256 260 265 270 273 275 277 277 280 281 277 280 279 271 283 272 281 277 278 276 279 289 295 290 282 287 281 282 282 281 275 287 287 286 283 274 283 274 279 279 281 269 266 270 269
253 255 265 260 265 268 264 270 276 265 279 279 281 281 282 282 282 282 282 281 279 280 288 288 288 296 296 293 291 289 288 284 275 272 281 273 269 272 267 267 266 264 267 268 278 266 276 269 267
257 260 262 257 263 272 272 265 271 274 279 282 278 280 283 285 283 282 283 289 299 300 302 300 298 295 293 291 286 281 275 272 271 268 262 263 265 265 293 268 265 264 264 265 266 268 267 266 267
266 268 254 272 266 268 268 273 274 276 276 275 276 281 283 282 283 292 294 302 303 303 302 298 296 298 301 300 296 300 297 279 267 261 258 256 256 256 260 261 262 263 262 262 265 266 267 268 270
256 258 262 265 267 270 273 273 270 274 276 280 283 280 290 294 295 298 301 304 302 300 300 311 314 300 299 293 294 303 315 298 268 258 261 264 250 252 254 253 257 261 262 258 262 266 271 266 267
255 257 266 268 267 267 269 271 271 275 283 281 283 292 291 291 295 300 300 300 299 304 302 302 303 319 312 311 322 337 335 329 296 256 278 242 252 247 268 253 254 254 257 262 269 267 269 268 267
255 259 259 264 271 278 278 282 285 286 288 288 288 289 292 295 298 301 297 303 305 305 307 309 308 311 325 357 354 351 350 350 330 254 228 233 239 253 249 249 251 252 257 260 263 266 268 271 263
265 277 272 278 278 281 282 284 283 282 284 283 288 290 295 299 294 298 304 303 304 313 316 344 320 333 10 3 9 7 1 3 358 277 219 222 236 242 253 250 247 249 253 260 257 261 266 263 266
267 274 275 277 276 276 275 273 276 278 282 286 290 287 294 294 297 300 301 300 306 306 311 309 352 358 10 20 11 17 19 13 15 3 213 216 237 245 254 247 245 243 252 259 262 259 262 266 269
266 267 269 273 272 274 275 277 278 281 283 288 289 291 294 287 296 292 299 303 305 317 320 341 329 357 10 14 24 19 22 26 26 290 194 218 241 249 253 251 239 234 244 259 263 268 269 275 277
265 266 269 273 275 273 274 279 277 278 282 285 288 283 285 290 286 295 299 303 303 301 318 336 327 356 3 4 14 21 31 27 33 35 28 338 286 276 267 255 251 243 249 255 267 276 279 280 281
269 271 272 273 272 272 275 276 274 280 282 282 281 281 283 286 294 292 298 314 321 309 324 323 341 354 356 356 8 14 14 25 31 37 38 43 47 46 39 14 291 262 261 268 276 276 271 269 282
270 269 268 269 269 271 273 272 265 268 274 278 264 277 280 289 284 293 300 322 328 315 302 337 304 348 349 358 351 359 3 14 10 13 11 23 28 42 47 43 23 345 325 296 272 287 296 290 279
268 270 271 271 264 263 259 255 262 272 252 260 272 277 277 280 287 295 294 296 299 298 287 295 285 299 347 304 305 351 351 357 342 352 359 6 10 4 357 355 352 322 285 301 296 294 280 292 292
261 257 261 262 267 268 270 272 263 245 260 264 266 272 282 285 298 302 293 292 299 317 314 322 307 313 338 338 346 334 341 350 340 324 315 342 359 356 345 334 335 313 318 313 304 300 301 286 288
256 270 263 262 250 216 220 235 241 249 264 271 270 279 271 290 284 288 295 315 300 308 304 296 329 329 329 305 336 295 325 324 327 324 343 335 316 332 319 335 303 326 324 324 317 303 307 298 287
177 208 235 234 245 250 260 265 266 265 272 284 277 286 282 286 271 311 294 311 305 310 318 322 323 323 326 316 303 295 325 295 310 311 289 294 323 322 311 325 306 300 302 318 312 313 299 295 298